Regional Weather Roundup
Issued by NWS

Home | Current Version | Previous Version | Graphics & Text | Print | Product List | Glossary On
Versions: 1 2 3 4 5 6 7 8 9 10 11 12 13 14 15 16 17 18 19 20 21 22 23 24 25 26 27 28 29 30 31 32 33 34 35 36 37 38 39 40 41 42 43 44 45 46 47 48 49 50
000
ASUS43 KDTX 180201
RWRMI
MICHIGAN HOURLY REGIONAL WEATHER ROUNDUP
NATIONAL WEATHER SERVICE DETROIT/PONTIAC MI
900 PM EST WED DEC 17 2014

NOTE: "FAIR" INDICATES FEW OR NO CLOUDS BELOW 12,000 FEET WITH NO
SIGNIFICANT WEATHER AND/OR OBSTRUCTION TO VISIBILITY.

MIZ047>049-052>055-059>063-066>070-074>076-081>083-180300-
SOUTHEAST LOWER MICHIGAN

CITY           SKY/WX    TMP DP  RH WIND       PRES   REMARKS
ADRIAN         CLOUDY    29  19  66 NW14      30.18R WCI  18
ALMA           CLOUDY    28  23  82 W9        30.13S WCI  19
ANN ARBOR      CLOUDY    28  18  66 NW14G22   30.15R WCI  17
BAD AXE        FLURRIES  28  26  92 W10       30.06R WCI  18
CARO           CLOUDY    28  22  80 W13       30.08S WCI  17
DETROIT CITY   CLOUDY    31  18  58 W9        30.13S WCI  23
DETROIT        FLURRIES  29  19  66 W15G23    30.15R WCI  18
FLINT          CLOUDY    28  18  66 W14       30.12S WCI  17
GROSSE ILE     CLOUDY    30  19  64 W15G24    30.14R WCI  19
HILLSDALE      CLOUDY    28  22  78 W10G17    30.15S WCI  18
HOWELL         CLOUDY    27  19  73 W10       30.13S WCI  17

CITY           SKY/WX    TMP DP  RH WIND       PRES   REMARKS
JACKSON        CLOUDY    26  18  71 NW10G18   30.16R WCI  16
LAMBERTVILLE   CLOUDY    32  21  64 NW10G16   30.18R WCI  24
LANSING        CLOUDY    27  19  72 W14       30.16S WCI  16
LAPEER         CLOUDY    27  20  76 W12G18    30.10S WCI  17
MASON          CLOUDY    26  19  73 W9        30.15S WCI  17
MONROE         CLOUDY    28  19  69 NW15G23   30.15R WCI  17
MT. CLEMENS    PTCLDY    28  19  67 W12       30.09F WCI  18
PONTIAC        PTCLDY    26  16  65 W18       30.10S WCI  13
PORT HOPE        N/A     29  25  85 W12G18    30.03R WCI  19
PORT HURON     CLOUDY    28  21  74 W6        30.10S WCI  22
TRI CITIES     FLURRIES  28  22  78 W15       30.10S WCI  16
TROY           MOCLDY    30  19  64 W9G22     30.14S WCI  22
SAGINAW HB     CLOUDY    28  23  80 W14       30.10S WCI  17
$$
MIZ043>046-050>051-056>058-064>065-071>073-077>080-180300-
SOUTHWEST LOWER MICHIGAN

CITY           SKY/WX    TMP DP  RH WIND       PRES   REMARKS
BATTLE CREEK   CLOUDY    29  20  69 NW12      30.18S WCI  19
BENTON HARBOR  CLOUDY    28  20  71 NW8       30.23R WCI  20
BIG RAPIDS     CLOUDY    28  26  96 W10G17    30.11S FOG     WCI  18
COLDWATER      CLOUDY    28  20  72 NW13G18   30.18S WCI  17
FREMONT        CLOUDY    28  22  79 W8        30.16S WCI  20
HOLLAND        CLOUDY    31  20  63 NW9       30.20S WCI  23
GRAND RAPIDS   FLURRIES  28  19  69 NW8       30.17S WCI  20
IONIA          CLOUDY    28  20  72 W10       30.15S WCI  19
KALAMAZOO      CLOUDY    29  20  69 NW15      30.19S WCI  18
LUDINGTON      CLOUDY    31  24  75 NW10G21   30.17S WCI  22
MARSHALL       CLOUDY    27  19  74 W9        30.17R WCI  17
MOUNT PLEASANT CLOUDY    28  24  82 W10       30.10S WCI  19
MUSKEGON       FLURRIES  30  21  69 NW10      30.19S WCI  21
SOUTH HAVEN    CLOUDY    30  21  69 NW10      30.22R WCI  21
$$
MIZ016>042-180300-
NORTHERN LOWER MICHIGAN

CITY           SKY/WX    TMP DP  RH WIND       PRES   REMARKS
ALPENA         CLOUDY    26  23  88 NW9       30.05R WCI  17
BEAVER ISLAND  CLOUDY    27  24  89 N12G17    30.12R WCI  17
BELLAIRE       CLOUDY    29  25  88 NW3       30.11R
CADILLAC       CLOUDY    28  25  91 W10       30.07R FOG     WCI  18
CHARLEVOIX     CLOUDY    28  25  90 N13G20    30.13R WCI  17
FRANKFORT      CLOUDY    30  27  86 NW9G17    30.14R WCI  22
GAYLORD        CLOUDY    23  21  92 VRB6      30.04R WCI  16
GRAYLING       FLURRIES  28  25  90 NW8       30.06R WCI  19
HARBOR SPRINGS CLOUDY    26  23  88 N12G20    30.08R WCI  15
HOUGHTON LAKE  CLOUDY    27  24  89 NW13G20   30.05R WCI  16
MANISTEE       CLOUDY    30  23  74 NW9G20    30.15S WCI  22
OSCODA         LGT SNOW  28  26  93 NW6       30.05R WCI  21
PELLSTON       CLOUDY    26  23  88 N6        30.09R WCI  19
ROGERS CITY    FLURRIES  27  25  93 NW10G16   30.07R WCI  17
TRAVERSE CITY  LGT SNOW  30  27  88 NW9       30.11R WCI  22
$$
MIZ007>008-015-180300-
EASTERN UPPER MICHIGAN

CITY           SKY/WX    TMP DP  RH WIND       PRES   REMARKS
KINROSS        CLOUDY    21  19  93 N12       30.08R WCI   9
MACKINAC ISLAN CLOUDY    25  24  96 N10G20    30.08R WCI  15
NEWBERRY       CLOUDY    23  22  96 N10       30.11R WCI  12
S. S. MARIE    LGT SNOW  21  14  74 N10G17    30.12R WCI  10
$$
MIZ004>006-011>014-085-180300-
CENTRAL UPPER MICHIGAN

CITY           SKY/WX    TMP DP  RH WIND       PRES   REMARKS
MANISTIQUE     CLOUDY    27  25  91 N13G21    30.13R WCI  16
ESCANABA       CLOUDY    28  21  74 N12G18    30.17R WCI  18
MENOMINEE      CLOUDY    27  19  74 N9        30.19S WCI  17
SAWYER-GWINN   CLOUDY    25  23  93 N16       30.15R WCI  12
$$
MIZ001>003-009>011-084-180300-
WESTERN UPPER MICHIGAN

CITY           SKY/WX    TMP DP  RH WIND       PRES   REMARKS
IRON MOUNTAIN  CLOUDY    24  20  84 NW10      30.18R WCI  14
HOUGHTON       MOCLDY    23  17  78 NE8       30.24R WCI  14
COPPER HARBOR    N/A     27  20  75 E20G26    30.26S WCI  13
IRONWOOD       CLOUDY    21  18  86 N5        30.23S WCI  15
$$

ABBREVIATIONS USED IN REMARKS
   TC - TEMPERATURE IN CELSIUS
  WCI - WIND CHILL INDEX
   HX - HEAT INDEX
  VSB - VISIBILITY




USA.gov is the U.S. government's official web portal to all federal, state and local government web resources and services.